Regional Weather Roundup
Issued by NWS

Home | Current Version | Previous Version | Graphics & Text | Print | Product List | Glossary On
Versions: 1 2 3 4 5 6 7 8 9 10 11 12 13 14 15 16 17 18 19 20 21 22 23 24 25 26 27 28 29 30 31 32 33 34 35 36 37 38 39 40 41 42 43 44 45 46 47 48 49 50
089
ASUS43 KBIS 191002
RWRND

NORTH DAKOTA REGIONAL WEATHER ROUNDUP
NATIONAL WEATHER SERVICE BISMARCK ND
400 AM CST SUN NOV 19 2017

NOTE: "FAIR" INDICATES FEW OR NO CLOUDS BELOW 12,000 FEET WITH NO
SIGNIFICANT WEATHER AND/OR OBSTRUCTIONS TO VISIBILITY.


NDZ001>003-009>011-017-191100-
NORTHWEST NORTH DAKOTA

CITY           SKY/WX    TMP DP  RH WIND       PRES   REMARKS
WILLISTON      CLOUDY    21  18  88 SW6       29.92F WCI  13
MINOT          CLOUDY    26  20  77 S7        29.88F WCI  18
$$

NDZ018>021-031>035-040>046-191100-
SOUTHWEST NORTH DAKOTA

CITY           SKY/WX    TMP DP  RH WIND       PRES   REMARKS
BISMARCK       CLOUDY    26  21  81 CALM      29.99F
DICKINSON      CLOUDY    30  20  66 SW15      29.93F WCI  19
GARRISON         N/A     28  25  88 W8        29.92F WCI  20
HETTINGER ARPT CLOUDY    21  15  78 W7        30.00F WCI  12
$$

NDZ004>008-012>016-024-026-027-054-191100-
NORTHEAST NORTH DAKOTA

CITY           SKY/WX    TMP DP  RH WIND       PRES   REMARKS
GRAND FORKS    PTCLDY    12   8  84 SW6       30.00F WCI   3
GRND FRKS AFB  CLEAR     12   7  79 W6        29.99F WCI   2
DEVILS LAKE    CLOUDY    19  16  88 SW8       29.94F WCI   9
$$

NDZ022-023-025-028>030-036>039-047>053-191100-
SOUTHEAST NORTH DAKOTA

CITY           SKY/WX    TMP DP  RH WIND       PRES   REMARKS
FARGO          CLEAR     12   8  84 S6        30.02F WCI   3
JAMESTOWN      CLOUDY    20  16  84 CALM      29.96F
$$





USA.gov is the U.S. government's official web portal to all federal, state and local government web resources and services.